EW3995 Weather Reports


Display with metric or nautical units.
time (UTC)temp
F
wind
direction
speed
MPH
gust
MPH
rain 1hr
in
rain 24hr
in
rain mn
in
humidity
%
barometer
mb
20260504050452 62 213 4.0 7.0 0.00 0.00 0.00 34 1006.4
20260504045453 61 202 5.0 7.0 0.00 0.00 0.00 34 1006.4
20260504044453 60 199 4.0 8.0 0.00 0.00 0.00 35 1007.5
20260504043453 60 182 4.0 6.0 0.00 0.00 0.00 36 1007.5
20260504042452 59 205 3.0 6.0 0.00 0.00 0.00 38 1007.5
20260504041302 58 225 3.0 5.0 0.00 0.00 0.00 41 1007.5
20260504040302 56 200 3.0 6.0 0.00 0.00 0.00 46 1006.4
20260504035302 52 176 2.0 6.0 0.00 0.00 0.00 49 1006.4
20260504034301 49 170 2.0 4.0 0.00 0.00 0.00 55 1007.5
20260504033302 45 174 2.0 4.0 0.00 0.00 0.00 54 1007.5
20260504032303 43 140 2.0 3.0 0.00 0.00 0.00 54 1007.5
20260504031301 42 139 2.0 4.0 0.00 0.00 0.00 56 1007.5
20260504030302 41 191 2.0 4.0 0.00 0.00 0.00 57 1007.5
20260504025110 39 158 2.0 5.0 0.00 0.00 0.00 59 1007.5
20260504023919 38 142 3.0 4.0 0.00 0.00 0.00 61 1007.5
20260504022919 37 135 1.0 3.0 0.00 0.00 0.00 63 1008.5
20260504021919 36 158 2.0 3.0 0.00 0.00 0.00 64 1007.5
20260504020919 35 135 0.0 3.0 0.00 0.00 0.00 66 1007.5
20260504015919 34 140 1.0 2.0 0.00 0.00 0.00 67 1008.5
20260504014919 32 135 0.0 1.0 0.00 0.00 0.00 68 1008.5
20260504013919 31 135 0.0 1.0 0.00 0.00 0.00 69 1008.5
20260504012919 31 135 0.0 0.0 0.00 0.00 0.00 69 1008.5
20260504011919 30 135 0.0 0.0 0.00 0.00 0.00 70 1008.5
20260504010727 29 135 0.0 0.0 0.00 0.00 0.00 71 1008.5
20260504005728 29 135 0.0 0.0 0.00 0.00 0.00 71 1009.6
20260504004727 28 135 0.0 0.0 0.00 0.00 0.00 71 1009.6
20260504003727 28 135 0.0 0.0 0.00 0.00 0.00 72 1009.6
20260504002536 28 135 0.0 0.0 0.00 0.00 0.00 71 1009.6
20260504001536 27 225 0.0 0.0 0.00 0.00 0.00 71 1009.6
20260504000536 27 225 0.0 0.0 0.00 0.00 0.00 70 1009.6
20260503235536 27 225 0.0 0.0 0.00 0.00 0.00 71 1009.6
20260503234406 27 225 0.0 0.0 0.00 0.00 0.00 71 1009.6
20260503233214 27 225 0.0 0.0 0.00 0.00 0.00 70 1008.5
20260503232215 27 225 0.0 0.0 0.00 0.00 0.00 70 1008.5
20260503231044 27 225 0.0 0.0 0.00 0.00 0.00 70 1009.6
20260503230044 27 225 0.0 0.0 0.00 0.00 0.00 71 1008.5
20260503225044 27 225 0.0 0.0 0.00 0.00 0.00 68 1009.6
20260503224044 28 225 0.0 0.0 0.00 0.00 0.00 68 1009.6
20260503223044 28 225 0.0 0.0 0.00 0.00 0.00 66 1009.6
20260503222044 28 225 0.0 0.0 0.00 0.00 0.00 65 1009.6
20260503221044 28 225 0.0 0.0 0.00 0.00 0.00 65 1009.6
20260503220044 29 225 0.0 0.0 0.00 0.00 0.00 64 1010.6
20260503215044 29 225 0.0 0.0 0.00 0.00 0.00 64 1010.6
20260503214044 29 225 0.0 0.0 0.00 0.00 0.00 63 1010.6
20260503213044 30 225 0.0 0.0 0.00 0.00 0.00 63 1010.6
20260503212044 30 225 0.0 0.0 0.00 0.00 0.00 63 1010.6
20260503210914 30 225 0.0 0.0 0.00 0.00 0.00 62 1010.6
20260503205914 30 225 0.0 0.0 0.00 0.00 0.00 61 1010.6
20260503204914 30 225 0.0 1.0 0.00 0.00 0.00 60 1010.6
20260503203914 31 225 0.0 0.0 0.00 0.00 0.00 60 1010.6
20260503202914 31 225 0.0 0.0 0.00 0.00 0.00 59 1010.6
20260503201914 32 225 0.0 0.0 0.00 0.00 0.00 59 1010.6
20260503200914 32 225 0.0 0.0 0.00 0.00 0.00 58 1010.6
20260503195914 32 225 0.0 1.0 0.00 0.00 0.00 57 1011.6
20260503194914 32 202 0.0 0.0 0.00 0.00 0.00 57 1011.6
20260503193914 33 202 0.0 2.0 0.00 0.00 0.00 57 1011.6
20260503192914 33 76 0.0 2.0 0.00 0.00 0.00 58 1011.6
20260503191914 33 68 0.0 1.0 0.00 0.00 0.00 58 1011.6
20260503190914 33 68 0.0 1.0 0.00 0.00 0.00 57 1011.6
20260503185914 34 68 0.0 1.0 0.00 0.00 0.00 56 1011.6
20260503184914 34 68 0.0 1.0 0.00 0.00 0.00 56 1011.6
20260503183914 34 68 0.0 2.0 0.00 0.00 0.00 56 1011.6
20260503182914 34 68 0.0 0.0 0.00 0.00 0.00 55 1011.6
20260503181914 34 68 0.0 0.0 0.00 0.00 0.00 54 1011.6
20260503180914 35 68 0.0 2.0 0.00 0.00 0.00 54 1011.6
20260503175914 35 68 0.0 0.0 0.00 0.00 0.00 53 1011.6
20260503174914 36 68 0.0 1.0 0.00 0.00 0.00 52 1011.6
20260503173914 36 68 0.0 1.0 0.00 0.00 0.00 52 1011.6
20260503172914 36 68 0.0 1.0 0.00 0.00 0.00 50 1011.6
20260503171914 37 248 0.0 1.0 0.00 0.00 0.00 49 1011.6
20260503170914 38 248 0.0 1.0 0.00 0.00 0.00 48 1011.6
20260503150723 50 188 3.0 8.0 0.00 0.00 0.00 38 1011.6
20260503130552 61 264 2.0 9.0 0.00 0.00 0.00 34 1011.6
20260503110553 58 198 5.0 17.0 0.00 0.00 0.00 36 1012.7
20260503090422 58 202 3.0 11.0 0.00 0.00 0.00 36 1013.7
20260503080952 59 190 5.0 12.0 0.00 0.00 0.00 36 1013.7